Retour au catalogue

SL-12 R/B(2)

LostMEO
NORAD 22517·ROCKET BODY·🇷🇺 Russia

Lancé Feb 17, 1993 depuis Baikonur Cosmodrome

Loading…

Prochains Passages (prochaines 24 heures)

TLE

PériméSource: Space-Track

Époque: Aug 4, 2026, 14:30 UTC

1 22517U 93010F   26216.60428116  .00000000  00000-0  00000+0 0  9994
2 22517  64.9608  67.0064 0027177 226.6303 310.7976  2.13421077261550

Suivez SL-12 R/B(2) en temps réel avec AllMySat

Download on the App Store